Location: West Sayville
(40.7279°N, 73.0976°W)
Time: 09:51:08
(UTC+00:00)

USA 305 - Pass Details

Date: 29 October 2020
Orbit: 569 x 577 km, 54.0° (Epoch: 22 November)

Event Time Altitude Azimuth Distance (km) Brightness Sun altitude
Rises 22:37:43 0° 314° (NW) 2,786 7.0 -9.3°
Reaches altitude 10° 22:40:14 10° 327° (NNW) 1,884 5.9 -9.8°
Maximum altitude 22:43:57 28° 27° (NNE) 1,088 4.0 -10.5°
Enters shadow 22:46:38 16° 78° (ENE) 1,548 4.4 -11.0°
